Simultaneous Nadir Overpasses (SNOs) Predictions

Prediction of SNOs between GOES-15 and NPP Satellite Orbit:

Table of predicted SNOs for the next 14.0 days since TLE Epoch: 7/27/2024
Index Date Time (GOES-15) GOES-15 Lat,Lon NPP Lat,Lon Distance(km) Time Diff (sec)
1 07/27/2024 21:18:11 0.39, 61.31 0.35, 61.39 9.53 80
2 07/30/2024 09:24:05 -0.40, 61.28 -0.53, 60.61 75.97 80
3 07/31/2024 09:02:41 -0.37, 61.30 0.51, 65.13 437.18 80
4 08/01/2024 21:27:08 0.40, 61.42 0.75, 59.87 176.53 80
5 08/02/2024 21:05:45 0.38, 61.45 -0.29, 64.39 335.92 80
6 08/04/2024 09:27:42 -0.41, 61.41 -0.91, 59.09 263.89 80
7 08/05/2024 09:08:58 -0.39, 61.43 0.07, 63.62 249.42 80
8 08/06/2024 21:33:26 0.42, 61.54 1.11, 58.35 363.26 80
9 08/07/2024 21:12:02 0.41, 61.57 0.12, 62.88 149.36 80
10 08/09/2024 09:33:59 -0.43, 61.54 -1.31, 57.57 451.69 80
